[TLELIST] Archives

 

[TLELIST] Current TLEs

February 23rd 2025 PST

HST 1 20580U 90037B 25053.80739604 .00010551 00000-0 42462-3 0 9999 2 20580 28.4681 99.1881 0002035 249.8656 110.1719 15.23210957715213 ISS (ZARYA) 1 25544U 98067A 25053.73682840 .00022830 00000-0 41694-3 0 9995 2 25544 51.6354 153.8867 0006032 301.7330 58.3070 15.49287303497412 CXO 1 25867U 99040B 25055.72788827 .00001130 00000-0 00000+0 0 9990 2 25867 46.9206 135.6033 8583641 307.2110 0.5921 0.37801725 26678 ...Continue Reading

[TLELIST] Current TLEs

February 22nd 2025 PST

HST 1 20580U 90037B 25052.82459975 .00009772 00000-0 39296-3 0 9994 2 20580 28.4680 105.8281 0002115 237.8480 122.1909 15.23188622715062 ISS (ZARYA) 1 25544U 98067A 25052.76926544 .00020907 00000-0 38326-3 0 9990 2 25544 51.6353 158.6755 0005970 296.9031 63.1347 15.49238473497261 CXO 1 25867U 99040B 25055.72788827 .00001130 00000-0 00000+0 0 9990 2 25867 46.9206 135.6033 8583641 307.2110 0.5921 0.37801725 26678 ...Continue Reading

[TLELIST] Current TLEs

February 21st 2025 PST

HST 1 20580U 90037B 25051.57970519 .00010578 00000-0 42637-3 0 9996 2 20580 28.4678 114.2391 0002152 223.1953 136.8472 15.23161787714877 ISS (ZARYA) 1 25544U 98067A 25052.46364612 .00019485 00000-0 35802-3 0 9994 2 25544 51.6385 160.1843 0005532 294.2004 160.2032 15.49223717497217 CXO 1 25867U 99040B 25053.08415715 .00001025 00000-0 00000-0 0 9994 2 25867 46.8597 135.7311 8587238 307.1775 0.6080 0.37803299 15518 ...Continue Reading

[TLELIST] Current TLEs

February 20th 2025 PST

HST 1 20580U 90037B 25051.25209753 .00011995 00000-0 48458-3 0 9997 2 20580 28.4677 116.4526 0002133 219.2826 140.7614 15.23156814715085 ISS (ZARYA) 1 25544U 98067A 25050.83424147 .00018626 00000-0 32986-3 0 9999 2 25544 51.6359 168.2538 0004483 338.7930 21.2872 15.50312718496965 CXO 1 25867U 99040B 25053.08415715 .00001025 00000-0 00000-0 0 9994 2 25867 46.8597 135.7311 8587238 307.1775 0.6080 0.37803299 15518 ...Continue Reading

[TLELIST] Current TLEs

February 19th 2025 PST

HST 1 20580U 90037B 25050.20374268 .00013427 00000-0 54373-3 0 9990 2 20580 28.4676 123.5346 0002273 206.3689 153.6790 15.23134015714921 ISS (ZARYA) 1 25544U 98067A 25050.46303878 .00018326 00000-0 32497-3 0 9999 2 25544 51.6392 170.0868 0004114 338.4416 108.5343 15.50288610496905 CXO 1 25867U 99040B 25050.43880923 .00000910 00000-0 00000-0 0 9999 2 25867 46.8236 135.8362 8590486 307.1490 0.4104 0.37807170 15504 ...Continue Reading

[TLELIST] Current TLEs

February 18th 2025 PST

HST 1 20580U 90037B 25048.89327600 .00011917 00000-0 48221-3 0 9997 2 20580 28.4678 132.3875 0002412 191.1406 168.9135 15.23100504714727 ISS (ZARYA) 1 25544U 98067A 25049.36865051 .00017018 00000-0 30289-3 0 9996 2 25544 51.6389 175.5124 0004060 333.0365 122.1476 15.50242656496730 CXO 1 25867U 99040B 25050.43880923 .00000910 00000-0 00000-0 0 9999 2 25867 46.8236 135.8362 8590486 307.1490 0.4104 0.37807170 15504 ...Continue Reading

[TLELIST] Current TLEs

February 17th 2025 PST

HST 1 20580U 90037B 25047.64830742 .00010619 00000-0 42922-3 0 9995 2 20580 28.4680 140.7973 0002515 177.5927 182.4679 15.23070118714273 ISS (ZARYA) 1 25544U 98067A 25048.53056796 .00015934 00000-0 28447-3 0 9990 2 25544 51.6387 179.6660 0004206 328.3586 126.5332 15.50208832496605 CXO 1 25867U 99040B 25047.79358142 .00000824 00000-0 00000+0 0 9990 2 25867 46.7990 135.9313 8595286 307.1265 0.2609 0.37808567 26646 ...Continue Reading

[TLELIST] Current TLEs

February 17th 2025 PST

HST 1 20580U 90037B 25047.64830742 .00010619 00000-0 42922-3 0 9995 2 20580 28.4680 140.7973 0002515 177.5927 182.4679 15.23070118714273 ISS (ZARYA) 1 25544U 98067A 25048.53056796 .00015934 00000-0 28447-3 0 9990 2 25544 51.6387 179.6660 0004206 328.3586 126.5332 15.50208832496605 CXO 1 25867U 99040B 25047.79358142 .00000824 00000-0 00000+0 0 9990 2 25867 46.7990 135.9313 8595286 307.1265 0.2609 0.37808567 26646 ...Continue Reading

[TLELIST] [TLELIST] Current TLEs

February 17th 2025 PST

HST 1 20580U 90037B 25047.64830742 .00010619 00000-0 42922-3 0 9995 2 20580 28.4680 140.7973 0002515 177.5927 182.4679 15.23070118714273 ISS (ZARYA) 1 25544U 98067A 25048.53056796 .00015934 00000-0 28447-3 0 9990 2 25544 51.6387 179.6660 0004206 328.3586 126.5332 15.50208832496605 CXO 1 25867U 99040B 25047.79358142 .00000824 00000-0 00000+0 0 9990 2 25867 46.7990 135.9313 8595286 307.1265 0.2609 0.37808567 26646 ...Continue Reading

[TLELIST] Current TLEs

February 16th 2025 PST

HST 1 20580U 90037B 25046.66542092 .00010506 00000-0 42482-3 0 9990 2 20580 28.4681 147.4362 0002599 166.9404 193.1258 15.23048607714128 ISS (ZARYA) 1 25544U 98067A 25047.36097323 .00015718 00000-0 28112-3 0 9990 2 25544 51.6389 185.4638 0004156 323.0814 80.3534 15.50169220496425 CXO 1 25867U 99040B 25047.79358142 .00000824 00000-0 00000+0 0 9990 2 25867 46.7990 135.9313 8595286 307.1265 0.2609 0.37808567 26646 ...Continue Reading
  • This mailing list is a public mailing list - anyone may join or leave, at any time.
  • This mailing list is announce-only.

International Space Station (ISS) / Hubble Space Telescope (HST) / Chandra X-Ray Observatory Orbital Data via EMAIL

Privacy Policy:

Private list